Hourly Data Report for October 12, 2016

All times are specified in Local Standard Time (LST). Add 1 hour to adjust for Daylight Saving Time where and when it is observed.

FREDERICTON
NEW BRUNSWICK

45°52'08.000" N
66°32'14.000" W
20.70 m
8101505
71700
YFC

Download Data

Hourly Data (October 2016)
Hourly Data Report for October 12, 2016
Temp Definition
°C
Dew Point Temp Definition
°C
Rel Hum Definition
%
Wind Dir Definition
10's deg

Wind Spd Definition
km/h
Visibility Definition
km
Stn Press Definition
kPa
Hmdx Definition


Wind Chill Definition


Weather Definition


TIME
00:00 Legend Double Dagger 4.0 3.0 93 14 4 16.1 102.59     LegendNANA
01:00 Legend Double Dagger 2.8 2.4 97   0 16.1 102.59     LegendNANA
02:00 Legend Double Dagger 1.8 1.5 98   0 16.1 102.61     LegendNANA
03:00 Legend Double Dagger 1.1 1.0 99   0 16.1 102.61     LegendNANA
04:00 Legend Double Dagger 0.1 -0.3 97 18 5 16.1 102.60     LegendNANA
05:00 Legend Double Dagger 0.8 0.7 99   0 16.1 102.61     LegendNANA
06:00 Legend Double Dagger -0.3 -0.6 98   0 16.1 102.63     LegendNANA
07:00 Legend Double Dagger -0.4 -0.7 98 25 4 16.1 102.64   -2 LegendNANA
08:00 Legend Double Dagger 2.9 2.5 97   0 16.1 102.67     LegendNANA
09:00 Legend Double Dagger 7.6 5.3 86 17 5 16.1 102.65     LegendNANA
10:00 Legend Double Dagger 10.2 5.8 74 20 5 16.1 102.64     LegendNANA
11:00 Legend Double Dagger 12.9 6.7 66 21 5 16.1 102.62     LegendNANA
12:00 Legend Double Dagger 16.6 7.2 53 19 15 16.1 102.57     LegendNANA
13:00 Legend Double Dagger 18.4 2.3 34 20 21 16.1 102.49     LegendNANA
14:00 Legend Double Dagger 18.4 4.0 38 21 15 16.1 102.44     LegendNANA
15:00 Legend Double Dagger 19.1 4.4 37 16 21 16.1 102.38     LegendNANA
16:00 Legend Double Dagger 18.2 4.9 41 18 15 16.1 102.35     LegendNANA
17:00 Legend Double Dagger 15.7 3.7 45 17 17 16.1 102.35     LegendNANA
18:00 Legend Double Dagger 13.0 4.2 55 17 13 16.1 102.34     LegendNANA
19:00 Legend Double Dagger 12.0 4.8 61 17 9 16.1 102.35     LegendNANA
20:00 Legend Double Dagger 10.4 6.0 74 17 9 16.1 102.31     LegendNANA
21:00 Legend Double Dagger 9.0 6.0 81 20 11 16.1 102.31     LegendNANA
22:00 Legend Double Dagger 8.1 6.1 87   0 16.1 102.30     LegendNANA
23:00 Legend Double Dagger 5.6 4.8 95   0 16.1 102.28     LegendNANA

Notes on Data Quality.

Legend

  • E = Estimated
  • M = Missing
  • NA = Not Available
  • ‡ = Partner data that is not subject to review by the National Climate Archives
Date modified: